Regional Weather Roundup
Issued by NWS State College, PA

Home | Current Version | Previous Version | Graphics & Text | Print | Product List | Glossary Off
Versions: 1 2 3 4 5 6 7 8 9 10 11 12 13 14 15 16 17 18 19 20 21 22 23 24 25 26 27 28 29 30 31 32 33 34 35 36 37 38 39 40 41 42 43 44 45 46 47 48 49 50

000
ASUS41 KCTP 241803
RWRCTP

REGIONAL WEATHER ROUNDUP
NATIONAL WEATHER SERVICE STATE COLLEGE PA
200 PM EDT FRI MAR 24 2017

Note: "fair" indicates few or no clouds below 12,000 feet with no
significant weather and/or obstructions to visibility.

* = STATION THAT DOES NOT REPORT PRECIPITATION /E.G. RAIN...SNOW...ETC/
    THUNDER OR FOG.

PAZ002>004-007>009-013>016-020>023-029>032-241900-
WESTERN PENNSYLVANIA

CITY           SKY/WX    TMP DP  RH WIND       PRES   REMARKS
ERIE           PTSUNNY   70  47  43 SW18G28   30.01F
MEADVILLE      CLOUDY    65  46  50 SW10G23   30.06F
FRANKLIN*      CLOUDY    63  46  55 SW10G24   30.09F
NEW CASTLE     FAIR      67  49  52 SW12G18   30.10F
BEAVER COUNTY  SUNNY     68  46  45 W17G24    30.11F
BUTLER*        CLOUDY    68  48  49 SW14G22   30.12F
PITTSBURGH INT CLOUDY    70  48  45 SW13G25   30.11F
PITTSBURGH     CLOUDY    68  44  42 SW13G25   30.13F
INDIANA*       MOSUNNY   63  46  55 SW10G24   30.16F
LATROBE        MOSUNNY   64  45  48 SW21      30.16F
WASHINGTON CO* MOSUNNY   70  46  43 SW15G22   30.17F
$$

PAZ004>006-010>012-017>019-024>028-033>037-041-042-045-046-049>053-241900-
CENTRAL PENNSYLVANIA

CITY           SKY/WX    TMP DP  RH WIND       PRES   REMARKS
BRADFORD       CLOUDY    58  43  57 SW17G26   30.06F
DUBOIS         CLOUDY    62  43  49 SW18G26   30.10F
CLEARFIELD       N/A    N/A N/A N/A MISG      30.11F
JOHNSTOWN      CLOUDY    61  47  59 W16G25    30.15F
ALTOONA        CLOUDY    60  46  59 S12       30.16F
STATE COLLEGE  CLOUDY    52  37  58 SW8       30.16F
WILLIAMSPORT   MOSUNNY   47  32  56 SE10G18   30.19F
SELINSGROVE    MOSUNNY   48  36  63 S14       30.22F
FT INDIANTOWN  PTSUNNY   50  37  62 SW14      30.24F
CAPITAL CITY   PTSUNNY   52  36  54 SW10G18   30.25F
HARRISBURG     PTSUNNY   51  38  60 VRB7      30.25F
YORK           SUNNY     52  40  63 SW9       30.25F
$$

PAZ038>040-043-044-047-048-054-055-060>062-067>071-241900-
EASTERN PENNSYLVANIA

CITY           SKY/WX    TMP DP  RH WIND       PRES   REMARKS
SCRANTON       MOSUNNY   41  34  76 SW8       30.18F
MOUNT POCONO   CLOUDY    33  32  96 SW14      30.17F
ALLENTOWN      CLOUDY    47  29  49 SW14      30.27F
QUAKERTOWN*    CLOUDY    46  28  49 SW10      30.27F
READING        MOSUNNY   51  33  50 SW16      30.26F
LANCASTER      SUNNY     52  36  54 S10       30.26F
COATESVILLE    PTCLDY    48  30  49 S9G18     30.28F
POTTSTOWN      CLOUDY    47  27  45 S8        30.29F
BLUE BELL      CLOUDY    50  32  50 SW13      30.27F
DOYLESTOWN     CLOUDY   N/A N/A N/A S7        30.26F
WILLOW GROVE   NOT AVBL
NORTH PHILA    CLOUDY    54  29  38 SW18G26   30.29F
PHILADELPHIA   CLOUDY    55  29  36 SW22G30   30.29F
$$



USA.gov is the U.S. government's official web portal to all federal, state and local government web resources and services.